Regional Weather Roundup
Issued by NWS

Home | Current Version | Previous Version | Graphics & Text | Print | Product List | Glossary Off
Versions: 1 2 3 4 5 6 7 8 9 10 11 12 13 14 15 16 17 18 19 20 21 22 23 24 25 26 27 28 29 30 31 32 33 34 35 36 37 38 39 40 41 42 43 44 45 46 47 48 49 50

000
ASUS43 KMKX 310920
RWRWI

WISCONSIN REGIONAL WEATHER ROUNDUP
NATIONAL WEATHER SERVICE MILWAUKEE/SULLIVAN WI
300 AM CST SAT JAN 31 2015

NOTE: "FAIR" INDICATES FEW OR NO CLOUDS BELOW 12,000 FEET WITH NO
SIGNIFICANT WEATHER AND/OR OBSTRUCTIONS TO VISIBILITY.

WIZ001-002-006>008-014>016-023>028-311000-
NORTHWEST WISCONSIN

CITY           SKY/WX    TMP DP  RH WIND       PRES   REMARKS
SUPERIOR ARPT  CLOUDY    20  13  73 CALM      30.13F
ASHLAND        CLOUDY    21  14  74 SW3       30.12S
HAYWARD        CLOUDY    20  13  74 S3        30.10F
SIREN          CLOUDY    23  17  80 CALM      30.12R
CUMBERLAND     CLOUDY    19  14  79 CALM      30.11R
RICE LAKE      CLOUDY    19  12  73 SE3       30.13S
CHETEK         CLOUDY    19  11  72 CALM      30.12F
LADYSMITH      CLOUDY    19  11  70 S3        30.13F
EAU CLAIRE     CLOUDY    20  11  68 CALM      30.13F
MENOMONIE      CLOUDY    22  16  76 CALM      30.14S
NEW RICHMOND   CLOUDY    26  20  80 CALM      30.12F
OSCEOLA        CLOUDY    26  21  82 CALM      30.15S
$$

WIZ003>005-009-010-017-018-311000-
NORTH CENTRAL WISCONSIN

CITY           SKY/WX    TMP DP  RH WIND       PRES   REMARKS
MANITOWISH WTR CLOUDY    17  11  78 SW6       30.07S WCI   8
ARBOR VITAE    CLOUDY    17   9  71 CALM      30.07S
WOODRUFF       CLOUDY    17   9  71 CALM      30.07S
RHINELANDER    CLOUDY    16   7  67 SW8       30.08S WCI   5
EAGLE RIVER    CLOUDY    16   7  67 SW6       30.07S WCI   7
LAND O LAKES   CLOUDY    17   9  72 SW5       30.07S WCI  10
PHILLIPS       CLOUDY    19  12  75 SW6       30.09S WCI  11
TOMAHAWK       CLOUDY    17   8  68 CALM      30.09F
MEDFORD        CLOUDY    18  10  70 S6        30.09F WCI  10
MERRILL        CLOUDY    19   9  66 W8        30.11F WCI   9
$$

WIZ029-030-035-036-043>047-311000-
CENTRAL WISCONSIN

CITY           SKY/WX    TMP DP  RH WIND       PRES   REMARKS
WAUSAU         CLOUDY    18   8  65 S6        30.11F WCI  10
MOSINEE        CLOUDY    18  12  79 S6        30.14F WCI   9
MARSHFIELD     CLOUDY    18   9  68 S5        30.13F WCI  11
STEVENS POINT  CLOUDY    17  10  72 S5        30.15F WCI  10
WAUPACA        CLOUDY    20  11  68 S5        30.18F WCI  14
WAUTOMA        CLOUDY    15  10  80 CALM      30.19F
WISC RAPIDS    CLOUDY    19   9  65 CALM      30.17F
CAMP DOUGLAS   CLOUDY    26  16  66 SW6       30.15F WCI  19
$$

WIZ011>013-019>022-031-037>040-048>050-311000-
NORTHEAST WISCONSIN

CITY           SKY/WX    TMP DP  RH WIND       PRES   REMARKS
ANTIGO         CLOUDY    16   8  71 SW7       30.09F WCI   7
SHAWANO        CLOUDY    21  11  65 SW5       30.17F WCI  14
OCONTO         CLOUDY    20  11  67 MISG      30.18F
STURGEON BAY   CLOUDY    19  10  68 SW8       30.19F WCI   9
GREEN BAY      CLOUDY    20  13  74 S8        30.19F WCI  10
MANITOWOC      CLOUDY    22  15  75 S5        30.22F WCI  16
APPLETON       CLOUDY    19  12  73 S7        30.18F WCI  10
CLINTONVILLE   CLOUDY    21  10  63 S6        30.17F WCI  14
OSHKOSH        MOCLDY    18  11  74 S8        30.19F WCI   8
$$

WIZ032>034-041-042-053>061-311000-
SOUTHWEST WISCONSIN

CITY           SKY/WX    TMP DP  RH WIND       PRES   REMARKS
LA CROSSE      CLEAR     22  13  68 SE6       30.17F WCI  14
SPARTA         CLOUDY    26  14  60 SW3       30.17F
VIROQUA        CLEAR     21  14  74 SW7       30.14F WCI  12
BOSCOBEL       CLEAR     21  14  74 SW3       30.20F
PRAIRIE DU CHI CLEAR     25  13  62 S3        30.20F
PLATTEVILLE    CLEAR     20  16  84 S10       30.20F WCI   9
$$

WIZ056-057-062-063-064-067-068-311000-
SOUTH CENTRAL WISCONSIN

CITY           SKY/WX    TMP DP  RH WIND       PRES   REMARKS
REEDSBURG      CLOUDY    23  15  71 CALM      30.17F
BARABOO/DELLS  CLOUDY    24  15  69 SW9       30.17F WCI  14
LONE ROCK      PTCLDY    22  14  71 S5        30.20F WCI  16
MINERAL POINT  CLEAR     23  18  80 S7        30.18F WCI  15
MADISON        CLEAR     24  15  68 S6        30.20F WCI  17
MIDDLETON      PTCLDY    24  15  69 SW6       30.20F WCI  17
WATERTOWN      PTCLDY    16  13  88 CALM      30.21F
MONROE         CLEAR     23  19  86 SW14      30.20F WCI  11
JANESVILLE     MOCLDY    25  18  74 S6        30.24F WCI  18
$$

WIZ051-052-058>065-066-070>072-311000-
SOUTHEAST WISCONSIN

CITY           SKY/WX    TMP DP  RH WIND       PRES   REMARKS
MILWAUKEE      MOCLDY    21  13  71 SW8       30.25F WCI  11
WAUKESHA       PTCLDY    18  12  79 S3        30.24F
MILWAUKEE/TIMM PTCLDY    21  12  68 SW5       30.25F WCI  15
RACINE         CLOUDY    21  14  74 S7        30.27F WCI  12
BURLINGTON     CLOUDY    18  14  84 S3        30.25F
KENOSHA        CLOUDY    21  15  78 S5        30.26F WCI  15
FOND DU LAC    PTCLDY    20  12  71 S8        30.20F WCI  10
SHEBOYGAN      CLOUDY    20  14  77 SW6       30.22F WCI  12
WEST BEND      MOCLDY    21  14  73 SW5       30.21F WCI  15
JUNEAU         PTCLDY    17  13  85 S9        30.21F WCI   5
$$

LSZ147-162-311000-
LAKE SUPERIOR

STATION/POSITION TIME  TEMP    WIND        PRES    WAVE
                       AIR SEA DIR/SP/G            HT/PER
                 (UTC) (F)     (DEG/KT/KT) (MB)    (FT/S)
DEVILS ISLAND    0900   24     260/ 15/ 17 1020.7F
PORT WING        0800   21     230/  2/  4 1020.3S
SAXON HARBOR     0800   22     200/  6/  8 1020.0S
$$

LMZ867-665-643>646-311000-
LAKE MICHIGAN

STATION/POSITION TIME  TEMP    WIND        PRES    WAVE
                       AIR SEA DIR/SP/G            HT/PER
                 (UTC) (F)     (DEG/KT/KT) (MB)    (FT/S)
NORTHPORT PIER   0818   20     180/  2/  7 1022.4F
SISTER BAY       0843   21     190/  5/  6   N/A
KEWAUNEE LAKESHO 0800   21     230/  3/  8 1023.1F
SHEBOYGAN LAKESH 0900   22     200/  7/  9 1024.8F
PORT WASHINGTON  0800   22     230/  5/  9 1025.1
MILWAUKEE LAKESH 0900   23     220/  9/ 12   N/A
KENOSHA   LAKESH 0900   22     190/  5/  8 1024.7F
$$

TC  - TEMPERATURE IN CELSIUS
VSB - VISIBILITY IN STATUTE MILES
WCI - WIND CHILL INDEX
HX  - HEAT INDEX




USA.gov is the U.S. government's official web portal to all federal, state and local government web resources and services.